Location: Newark
(60.0000°N, 100.0000°E)
Time: 09:28:00
(UTC+00:00)

N. Korean satellite - Pass Details

Date: 25 November 2019
Orbit: 456 x 506 km, 97.2° (Epoch: 06 December)

Event Time Altitude Azimuth Distance (km) Brightness Sun altitude
Rises 11:05:29 0° 198° (SSW) 2,592 10.7 -17.7°
Reaches altitude 10° 11:07:51 10° 213° (SSW) 1,718 9.9 -18.0°
Maximum altitude 11:10:53 24° 268° (W) 1,099 9.2 -18.3°
Drops below altitude 10° 11:13:58 10° 324° (NW) 1,734 9.7 -18.7°
Sets 11:16:23 0° 338° (NNW) 2,625 10.5 -19.0°
